Hourly Data Report for September 22, 2017

All times are specified in Local Standard Time (LST). Add 1 hour to adjust for Daylight Saving Time where and when it is observed.

ENNADAI LAKE (AUT)
NUNAVUT

61°07'55.000" N
100°53'02.000" W
353.10 m
2301102
71923
WJC

Download Data

Hourly Data (September 2017)
Hourly Data Report for September 22, 2017
Temp Definition
°C
Dew Point Temp Definition
°C
Rel Hum Definition
%
Wind Dir Definition
10's deg

Wind Spd Definition
km/h
Visibility Definition
km
Stn Press Definition
kPa
Hmdx Definition


Wind Chill Definition


Weather Definition


TIME
00:00 1.7 -1.0 83 4 27   97.50     LegendNANA
01:00 1.1 -1.3 84 5 24   97.55     LegendNANA
02:00 0.8 -0.3 92 4 28   97.61     LegendNANA
03:00 0.8 -0.5 92 3 22   97.65     LegendNANA
04:00 1.2 -1.4 83 3 21   97.69     LegendNANA
05:00 0.8 -1.8 83 4 29   97.73     LegendNANA
06:00 -0.2 -2.1 87 4 28   97.81   -7 LegendNANA
07:00 0.2 -1.9 85 4 26   97.86     LegendNANA
08:00 0.4 -1.9 84 4 24   97.91     LegendNANA
09:00 0.7 -1.3 87 3 20   97.92     LegendNANA
10:00 2.5 -1.4 75 6 16   97.94     LegendNANA
11:00 3.1 -1.3 73 3 12   98.00     LegendNANA
12:00 3.8 -2.0 66 2 12   98.01     LegendNANA
13:00 4.3 -2.9 59 4 16   98.01     LegendNANA
14:00 3.7 -1.7 68 34 15   98.03     LegendNANA
15:00 4.6 -2.7 59 36 12   98.06     LegendNANA
16:00 4.7 -2.2 61 33 12   98.06     LegendNANA
17:00 4.5 -1.1 67 35 17   98.05     LegendNANA
18:00 3.9 0.5 79 4 9   98.04     LegendNANA
19:00 2.3 0.3 86 1 8   98.03     LegendNANA
20:00 2.8 1.2 89 2 11   98.02     LegendNANA
21:00 2.6 1.1 90 4 13   98.08     LegendNANA
22:00 1.7 0.1 90 5 15   98.09     LegendNANA
23:00 1.2 0.1 92 8 8   98.11     LegendNANA

Notes on Data Quality.

Legend

  • E = Estimated
  • M = Missing
  • NA = Not Available
  • ‡ = Partner data that is not subject to review by the National Climate Archives
Date modified: